Location: Spruce Knob
(38.6995°N, 79.5330°W)
Time: 17:06:21
(UTC-05:00)

BUGSAT 1 - Pass Details

Date: 04 October 2023
Orbit: 537 x 588 km, 98.2° (Epoch: 30 November)

Event Time Altitude Azimuth Distance (km) Brightness Sun altitude
Rises 20:38:18 0° 189° (S) 2,765 ? -20.6°
Reaches altitude 10° 20:40:36 10° 200° (SSW) 1,881 ? -21.1°
Maximum altitude 20:44:14 30° 263° (W) 1,044 ? -21.8°
Drops below altitude 10° 20:47:56 10° 325° (NW) 1,918 ? -22.5°
Sets 20:50:19 0° 336° (NNW) 2,829 ? -22.9°
